• In Hungary
  • List of Countries
  • For 7 days
  • Water Temperature
  • Satellite Maps
  • Weather Map
  • News
  • Weather Widgets
  • user-avatar
    Login

    Hourly Weather Uran

    Today, 21 July, Saturday

    Time Temperature Precipitation Wind Pressure Humidity
    00:00 +24°C° 0.8 mm 3 mps 747 mmHg 78%
    01:00 +23°C° 0.8 mm 4 mps 747 mmHg 83%
    02:00 +22°C° 0.2 mm 4 mps 747 mmHg 83%
    03:00 +22°C° 0.2 mm 3 mps 747 mmHg 84%
    04:00 +22°C° 0 mm 4 mps 747 mmHg 84%
    05:00 +22°C° 0.9 mm 4 mps 747 mmHg 84%
    06:00 +22°C° 0.9 mm 3 mps 748 mmHg 85%
    07:00 +22°C° 0.9 mm 3 mps 748 mmHg 86%
    08:00 +24°C° 0.5 mm 3 mps 748 mmHg 85%
    09:00 +23°C° 0.5 mm 4 mps 748 mmHg 84%
    10:00 +25°C° 0.5 mm 4 mps 748 mmHg 83%
    11:00 +26°C° 0.7 mm 5 mps 748 mmHg 78%
    12:00 +26°C° 0.7 mm 5 mps 748 mmHg 73%
    13:00 +27°C° 0.7 mm 5 mps 748 mmHg 68%
    14:00 +27°C° 0.1 mm 6 mps 748 mmHg 68%
    15:00 +27°C° 0.1 mm 6 mps 748 mmHg 68%
    16:00 +27°C° 0.1 mm 6 mps 748 mmHg 67%
    17:00 +26°C° 0 mm 6 mps 748 mmHg 70%
    18:00 +24°C° 0 mm 6 mps 748 mmHg 73%
    19:00 +23°C° 0 mm 6 mps 748 mmHg 76%
    20:00 +22°C° 0.1 mm 6 mps 748 mmHg 77%
    21:00 +21°C° 0.1 mm 6 mps 748 mmHg 78%
    22:00 +21°C° 0.1 mm 6 mps 748 mmHg 79%
    23:00 +20°C° 0 mm 6 mps 748 mmHg 79%

    Tomorrow, 22 July, Sunday

    Time Temperature Precipitation Wind Pressure Humidity
    00:00 +20°C° 0 mm 6 mps 748 mmHg 79%
    01:00 +19°C° 0 mm 6 mps 748 mmHg 79%
    02:00 +19°C° 0 mm 6 mps 748 mmHg 79%
    03:00 +19°C° 0 mm 6 mps 748 mmHg 79%
    04:00 +17°C° 0 mm 5 mps 749 mmHg 79%
    05:00 +19°C° 0 mm 6 mps 749 mmHg 77%
    06:00 +18°C° 0 mm 7 mps 749 mmHg 76%
    07:00 +18°C° 0 mm 7 mps 749 mmHg 75%
    08:00 +18°C° 0 mm 7 mps 750 mmHg 72%
    09:00 +20°C° 0 mm 7 mps 750 mmHg 70%
    10:00 +21°C° 0 mm 7 mps 750 mmHg 67%
    11:00 +21°C° 0.1 mm 7 mps 750 mmHg 65%
    12:00 +22°C° 0.1 mm 7 mps 750 mmHg 63%
    13:00 +22°C° 0.1 mm 7 mps 750 mmHg 61%
    14:00 +23°C° 0 mm 7 mps 751 mmHg 60%
    15:00 +23°C° 0 mm 7 mps 751 mmHg 59%
    16:00 +23°C° 0 mm 6 mps 751 mmHg 59%
    17:00 +22°C° 0 mm 6 mps 751 mmHg 61%
    18:00 +22°C° 0 mm 5 mps 751 mmHg 63%
    19:00 +22°C° 0 mm 4 mps 751 mmHg 65%
    20:00 +21°C° 0 mm 5 mps 751 mmHg 64%
    21:00 +20°C° 0 mm 5 mps 752 mmHg 63%
    22:00 +19°C° 0 mm 6 mps 752 mmHg 63%
    23:00 +17°C° 0 mm 6 mps 752 mmHg 62%

    Day after tomorrow, 23 July, Monday

    Time Temperature Precipitation Wind Pressure Humidity
    00:00 +17°C° 0 mm 6 mps 753 mmHg 61%
    01:00 +16°C° 0 mm 7 mps 753 mmHg 60%
    02:00 +15°C° 0 mm 7 mps 753 mmHg 61%
    03:00 +15°C° 0 mm 6 mps 753 mmHg 61%
    04:00 +14°C° 0 mm 6 mps 754 mmHg 62%
    05:00 +14°C° 0 mm 6 mps 754 mmHg 63%
    06:00 +14°C° 0 mm 7 mps 754 mmHg 64%
    07:00 +15°C° 0 mm 7 mps 754 mmHg 65%
    08:00 +16°C° 0 mm 7 mps 754 mmHg 61%
    09:00 +18°C° 0 mm 7 mps 755 mmHg 57%
    10:00 +20°C° 0 mm 7 mps 755 mmHg 54%
    11:00 +21°C° 0 mm 7 mps 755 mmHg 51%
    12:00 +22°C° 0 mm 7 mps 755 mmHg 49%
    13:00 +23°C° 0 mm 7 mps 755 mmHg 46%
    14:00 +24°C° 0 mm 6 mps 755 mmHg 46%
    15:00 +24°C° 0 mm 6 mps 755 mmHg 45%
    16:00 +24°C° 0 mm 6 mps 755 mmHg 45%
    17:00 +25°C° 0 mm 5 mps 755 mmHg 50%
    18:00 +23°C° 0 mm 4 mps 755 mmHg 54%
    19:00 +22°C° 0 mm 4 mps 755 mmHg 59%
    20:00 +21°C° 0 mm 4 mps 755 mmHg 62%
    21:00 +20°C° 0 mm 4 mps 755 mmHg 64%
    22:00 +18°C° 0 mm 4 mps 755 mmHg 66%
    23:00 +18°C° 0 mm 4 mps 756 mmHg 68%

    24 July, Tuesday

    Time Temperature Precipitation Wind Pressure Humidity
    00:00 +17°C° 0 mm 4 mps 756 mmHg 70%
    01:00 +15°C° 0 mm 4 mps 756 mmHg 71%
    02:00 +15°C° 0 mm 4 mps 756 mmHg 72%
    03:00 +14°C° 0 mm 4 mps 756 mmHg 73%
    04:00 +14°C° 0 mm 3 mps 756 mmHg 74%
    05:00 +15°C° 0 mm 4 mps 756 mmHg 73%
    06:00 +17°C° 0 mm 4 mps 757 mmHg 71%
    07:00 +18°C° 0 mm 4 mps 757 mmHg 69%
    08:00 +20°C° 0 mm 4 mps 757 mmHg 63%
    09:00 +22°C° 0 mm 4 mps 757 mmHg 57%
    10:00 +25°C° 0 mm 5 mps 757 mmHg 51%
    11:00 +26°C° 0 mm 5 mps 757 mmHg 49%
    12:00 +27°C° 0 mm 5 mps 757 mmHg 46%
    13:00 +28°C° 0 mm 5 mps 757 mmHg 44%
    14:00 +28°C° 0 mm 5 mps 757 mmHg 44%
    15:00 +29°C° 0 mm 4 mps 757 mmHg 43%
    16:00 +29°C° 0 mm 4 mps 757 mmHg 43%
    17:00 +28°C° 0 mm 4 mps 757 mmHg 48%
    18:00 +28°C° 0 mm 3 mps 757 mmHg 53%
    19:00 +27°C° 0 mm 3 mps 757 mmHg 58%
    20:00 +25°C° 0 mm 3 mps 757 mmHg 63%
    21:00 +24°C° 0 mm 3 mps 757 mmHg 68%
    22:00 +21°C° 0 mm 3 mps 757 mmHg 73%
    23:00 +21°C° 0 mm 3 mps 757 mmHg 76%

    25 July, Wednesday

    Time Temperature Precipitation Wind Pressure Humidity
    00:00 +20°C° 0 mm 3 mps 757 mmHg 79%
    01:00 +20°C° 0 mm 3 mps 757 mmHg 82%
    02:00 +19°C° 0 mm 3 mps 757 mmHg 82%
    03:00 +19°C° 0 mm 3 mps 757 mmHg 83%
    04:00 +19°C° 0 mm 3 mps 758 mmHg 83%
    05:00 +20°C° 0 mm 3 mps 758 mmHg 80%
    06:00 +21°C° 0 mm 3 mps 758 mmHg 76%
    07:00 +22°C° 0 mm 3 mps 758 mmHg 73%
    08:00 +25°C° 0 mm 3 mps 758 mmHg 66%
    09:00 +27°C° 0 mm 3 mps 758 mmHg 58%
    10:00 +29°C° 0 mm 3 mps 758 mmHg 51%
    11:00 +29°C° 0 mm 3 mps 758 mmHg 47%
    12:00 +30°C° 0 mm 3 mps 758 mmHg 43%
    13:00 +32°C° 0 mm 4 mps 758 mmHg 40%
    14:00 +32°C° 0 mm 4 mps 757 mmHg 40%
    15:00 +31°C° 0 mm 3 mps 757 mmHg 41%
    16:00 +31°C° 0 mm 3 mps 757 mmHg 42%
    17:00 +30°C° 0 mm 3 mps 757 mmHg 47%
    18:00 +29°C° 0 mm 3 mps 757 mmHg 52%
    19:00 +28°C° 0 mm 2 mps 757 mmHg 56%
    20:00 +27°C° 0 mm 3 mps 757 mmHg 60%
    21:00 +25°C° 0 mm 3 mps 757 mmHg 64%
    22:00 +24°C° 0 mm 3 mps 757 mmHg 68%
    23:00 +22°C° 0 mm 3 mps 757 mmHg 70%

    26 July, Thursday

    Time Temperature Precipitation Wind Pressure Humidity
    00:00 +22°C° 0 mm 3 mps 758 mmHg 72%
    01:00 +21°C° 0 mm 3 mps 758 mmHg 75%
    02:00 +21°C° 0 mm 3 mps 758 mmHg 76%
    03:00 +21°C° 0 mm 3 mps 758 mmHg 77%
    04:00 +20°C° 0 mm 3 mps 758 mmHg 78%
    05:00 +21°C° 0 mm 3 mps 758 mmHg 76%
    06:00 +22°C° 0 mm 3 mps 758 mmHg 73%
    07:00 +22°C° 0 mm 3 mps 758 mmHg 71%
    08:00 +25°C° 0 mm 3 mps 758 mmHg 66%
    09:00 +26°C° 0 mm 4 mps 759 mmHg 60%
    10:00 +28°C° 0 mm 4 mps 759 mmHg 55%
    11:00 +29°C° 0 mm 4 mps 759 mmHg 51%
    12:00 +29°C° 0 mm 4 mps 758 mmHg 48%
    13:00 +30°C° 0 mm 4 mps 758 mmHg 44%
    14:00 +30°C° 0 mm 4 mps 758 mmHg 43%
    15:00 +30°C° 0 mm 4 mps 758 mmHg 43%
    16:00 +30°C° 0 mm 4 mps 758 mmHg 43%
    17:00 +30°C° 0 mm 4 mps 758 mmHg 46%
    18:00 +29°C° 0 mm 3 mps 758 mmHg 50%
    19:00 +28°C° 0 mm 3 mps 758 mmHg 53%
    20:00 +27°C° 0 mm 3 mps 758 mmHg 57%
    21:00 +25°C° 0 mm 3 mps 758 mmHg 61%
    22:00 +24°C° 0 mm 3 mps 759 mmHg 65%
    23:00 +22°C° 0 mm 3 mps 759 mmHg 69%
    Show more